Orbital Elements at Epoch 2459200.5 (2020-Dec-17.0) TDB
Reference: JPL 22 (heliocentric ecliptic J2000)
Element | Value | Uncertainty (1-sigma) | Units |
e | .08408047210633389 | 3.351e-08 | |
a | 2.271958260369036 | 9.6957e-09 | au |
q | 2.080930937231322 | 7.8952e-08 | au |
i | 2.103854760223713 | 3.8136e-06 | deg |
node | 291.2653421554032 | 0.00011643 | deg |
peri | 171.261990226235 | 0.00011997 | deg |
M | 49.97722248588278 | 3.1116e-05 | deg |
tp | 2459026.852488071988 (2020-Jun-26.35248807) | 0.00010763 | TDB |
period | 1250.831902708132 3.42 | 8.007e-06 2.192e-08 | d yr |
n | .2878084570920975 | 1.8423e-09 | deg/d |
Q | 2.462985583506749 | 1.0511e-08 | au |
|
| | Orbit Determination Parameters
Additional Information
|